SENTINEL-3A (41335 NORAD) Tracking and Keplerian Element Data

This shows tracking and keplerian element data for the satellite.

Feedback or suggestion? Click here.




ElementValue
Catalog41335
NameSENTINEL-3A
Epoch Orbit45074
Epoch Day286.84236506
Epoch Year2024
RAAN351.9487
Inclination98.6279
Eccentricity0.0001141
Argument of Perigee103.1534
Mean Anonmoly256.9774
Mean Motion14.26737563
Decay Rate8.58E-06
L11 41335U 16011A 24286.84236506 .00000858 00000+0 37264-3 0 9996
L22 41335 98.6279 351.9487 0001141 103.1534 256.9774 14.26737563450744



Live tracking and technical data element details for SENTINEL-3A (NORAD 41335). SENTINEL-3A can be tracked NOW for your location showing map with azimuth and elevation plus other details from your city location.







IsCatalogInMostPopularTable: catalog: 41335, numindb: 835
Update: records affected: 1



GetName: 41335 SENTINEL-3A

Hit Count: updated at: Thu, 23 Jan 2025 14:30:45 GMT